Location: Cuba
(32.3140°N, 97.2692°W)
Time: 01:36:33
(UTC+00:00)

Daily predictions for brighter satellites

Satellite Brightness Start Highest point End
(mag) Time Altitude Azimuth Time Altitude Azimuth Time Altitude Azimuth
MOS 1 Rocket 3.9 00:01:45 10° SE 00:05:21 27° ENE 00:08:58 10° NNE
Cosmos 1025 Rocket 3.4 00:01:42 10° N 00:05:48 41° E 00:09:51 10° SSE
Cosmos 1606 2.6 00:03:29 10° SSW 00:06:08 55° W 00:08:49 10° N
IRS-P3 4.4 00:01:26 10° SE 00:06:31 47° ENE 00:11:36 10° N
SJ-12 3.7 00:04:38 10° SSE 00:08:23 64° ENE 00:12:10 10° N
Cosmos 2016 Rocket 4.0 00:04:53 10° S 00:11:01 68° E 00:17:15 10° NNE
CORIOLIS 4.3 00:05:51 10° S 00:11:14 81° WSW 00:16:38 10° NNW
SAR-Lupe-4 3.7 00:08:08 10° S 00:11:42 77° WSW 00:15:17 10° NNW
USA 215 4.0 00:08:53 10° SSE 00:15:16 57° SW 00:21:43 10° NW
Cosmos 909 Rocket 4.3 00:09:30 10° NNW 00:15:33 48° ENE 00:22:02 10° SE
CZ-2D R/B 4.3 00:13:42 10° SE 00:17:02 26° ENE 00:20:26 10° NNE
Cosmos 1378 Rocket 4.2 00:14:16 10° NNW 00:18:31 58° W 00:22:46 10° S
SPOT 1/Viking Rocket 4.1 00:15:36 10° SE 00:20:10 34° ENE 00:24:46 10° N
Cosmos 1782 Rocket 3.9 00:16:06 10° SSE 00:20:16 43° E 00:24:28 10° NNE
Cosmos 1943 Rocket 3.9 00:18:37 10° ESE 00:20:16 11° E 00:20:25 11° E
Cosmos 1818 4.3 00:15:34 10° NW 00:20:53 57° WSW 00:26:10 10° SSE
ARIANE 5 R/B 2.6 00:17:14 10° S 00:22:13 79° WSW 00:27:12 10° NNW
Tiangong 0.1 00:20:42 10° NW 00:22:42 15° N 00:24:28 11° NE
SWARM A 4.4 00:26:24 10° N 00:29:42 74° W 00:32:59 10° S
Cosmos 2061 Rocket 4.0 00:24:16 10° S 00:30:33 63° E 00:36:46 10° NNE
Cosmos 1140 Rocket 3.9 00:26:49 10° S 00:31:38 40° E 00:36:26 10° NNE
SKYMED 2 3.5 00:30:36 10° NNE 00:34:58 89° WSW 00:39:17 10° SSW
COSMO-SKYMED 1 2.4 00:31:53 10° NNE 00:35:58 62° E 00:40:01 10° S
Cosmos 1908 Rocket 4.4 00:31:48 10° SSW 00:36:03 52° W 00:40:22 10° N
Cosmos 1300 Rocket 3.5 00:36:43 10° S 00:41:06 90° NE 00:45:31 10° N
Cosmos 1833 Rocket 4.0 00:40:47 10° NNE 00:44:22 19° NE 00:44:22 19° NE
Delta 2 Rocket 3.4 00:43:05 10° W 00:47:01 56° N 00:48:35 32° NE
Cosmos 1975 Rocket 3.7 00:45:29 10° NNE 00:49:20 31° E 00:53:12 10° SE
Cosmos 1441 Rocket 2.7 00:47:18 10° N 00:50:36 61° E 00:53:54 10° SSE
Cosmos 2221 Rocket 4.3 00:46:23 10° NNW 00:50:47 58° W 00:55:09 10° S
VEP-3 3.8 00:43:01 10° W 00:51:23 41° SSW 00:55:45 14° SE
Cosmos 1603 4.3 00:49:40 10° NNW 00:55:14 58° WSW 01:00:42 10° S
Spot 4 Rocket 3.9 00:57:05 10° SSE 01:02:10 80° ENE 01:07:16 10° N
Cosmos 2084 Rocket 3.2 00:58:35 10° SSW 01:02:43 88° SE 01:04:22 36° NNE
TIMED 4.5 00:59:27 10° S 01:03:34 54° ESE 01:04:17 47° ENE
SJ-7 4.1 01:05:01 10° S 01:08:43 82° W 01:12:24 10° NNW
PSLV R/B 3.3 01:08:23 10° SSE 01:12:28 87° WSW 01:16:34 10° NNW
Cosmos 407 Rocket 3.6 01:08:06 10° S 01:13:08 49° ESE 01:13:35 48° E
Cosmos 1869 3.6 01:10:35 10° S 01:13:10 45° S 01:13:10 45° S
Cosmos 1464 Rocket 4.2 01:13:03 10° SSE 01:19:04 47° E 01:20:09 43° ENE
NOSS 3-4 (A) 3.9 01:13:13 10° NNW 01:20:31 75° ENE 01:28:23 12° SE
NOSS 3-4 (C) 3.9 01:13:18 10° NNW 01:20:35 74° ENE 01:28:09 13° SE
NOAA 6 3.9 01:16:36 10° SSE 01:21:45 77° ENE 01:26:54 10° N
Resurs 1-3 3.7 01:19:04 10° S 01:23:20 70° W 01:27:37 10° NNW
ATLAS CENTAUR R/B 4.0 01:24:38 10° WNW 01:25:36 11° NW 01:26:34 10° NW
Cosmos 2278 Rocket 2.5 01:20:38 10° S 01:25:11 45° SE 01:25:11 45° SE
YAOGAN 1 3.6 01:31:38 10° S 01:35:40 43° W 01:39:45 10° NNW
USA 281 3.4 01:39:32 49° NE 01:39:32 49° NE 01:44:58 10° N
SL-12 R/B(2) 4.2 01:31:17 10° SSW 01:38:47 81° WNW 01:44:53 22° NNE
OAO 2 Rocket 3.7 01:36:20 10° SW 01:40:43 54° S 01:40:43 54° S
OAO 3 Copernicus 4.5 01:39:07 10° WSW 01:43:34 69° W 01:43:34 69° W
Cosmos 1072 Rocket 4.3 01:41:08 10° S 01:47:23 90° W 01:49:40 42° N
Cosmos 1943 Rocket 2.7 01:57:39 10° SSW 02:02:00 53° SW 02:02:00 53° SW
Cosmos 1833 Rocket 4.4 02:23:31 10° NNW 02:26:07 26° NW 02:26:07 26° NW
Cosmos 2237 Rocket 4.5 10:18:09 10° SSE 10:22:25 22° E 10:26:41 10° NE
NOSS 3-1 (A) 3.8 10:29:28 41° ESE 10:29:28 41° ESE 10:34:02 10° NE
DELTA 2 R/B (1) 3.9 10:45:20 54° S 10:45:20 54° S 10:50:10 10° SE
Cosmos 1153 Rocket 4.4 10:43:31 10° N 10:49:44 89° WSW 10:56:00 10° S
Cosmos 1340 Rocket 3.2 11:00:18 53° SE 11:00:18 53° SE 11:03:16 10° SSE
Cosmos 1943 Rocket 4.3 10:55:48 10° N 11:00:03 22° ENE 11:04:17 10° ESE
PAYLOAD A 4.0 10:55:29 10° N 11:00:41 60° WNW 11:00:41 60° WNW
CZ-2C R/B 4.3 10:57:00 10° N 10:58:22 18° N 10:58:22 18° N
Meteor 2-14 Rocket 4.4 10:57:16 10° SSW 11:03:16 59° W 11:09:17 10° N
USA 234 3.9 10:57:07 10° ESE 11:03:25 52° NE 11:08:18 17° NNW
Cosmos 1066 4.5 11:06:43 10° S 11:12:09 79° W 11:17:40 10° N
SL-16 R/B 3.7 11:07:16 10° SSW 11:10:12 24° SW 11:10:12 24° SW
IRS-1D 3.3 11:21:31 10° NNE 11:26:29 89° WNW 11:31:23 10° SSW
UNK 4.2 11:23:14 10° SSW 11:27:24 37° W 11:27:44 36° W
Cosmos 1328 4.5 11:29:36 31° NNW 11:29:36 31° NNW 11:31:47 10° N
COSMOS 2428 3.4 11:29:57 30° W 11:30:51 31° WNW 11:35:51 10° N
NOSS 0 Rocket 4.1 11:29:31 10° SW 11:35:26 49° WNW 11:41:22 10° N
Cosmos 2100 Rocket 3.9 11:29:37 10° NNW 11:35:39 59° W 11:41:41 10° S
Cosmos 1703 Rocket 3.8 11:36:57 10° SSW 11:41:05 44° W 11:45:16 10° N
Helios 1A Rocket 3.1 11:40:53 10° SSE 11:44:12 54° ENE 11:47:32 10° N
Cosmos 407 Rocket 4.4 11:39:48 10° N 11:44:44 49° ENE 11:49:39 10° SE
Cosmos 1023 Rocket 4.3 11:39:52 10° NNW 11:44:54 69° WSW 11:49:54 10° S
Cosmos 921 Rocket 3.8 11:43:43 23° WNW 11:45:33 31° W 11:49:26 10° SSW
BlueWalker 3 3.6 11:42:58 10° NNW 11:45:59 26° NE 11:49:03 10° E
Cosmos 1980 3.8 11:44:22 10° SW 11:49:50 51° WNW 11:55:19 10° N
